Tracking 25686 objects as of 25-May-2022
HD Live streaming from Space Station
objects crossing your sky now

SL-14 DEB

Track SL-14 DEB now!
10-day predictions


NORAD ID: 26029
Int'l Code: 1991-068AQ
Perigee: 1,413.6 km
Apogee: 1,477.3 km
Inclination: 82.6 °
Period: 114.6 minutes
Semi major axis: 7816 km
RCS: 0.0153 m2 (small)
Launch date: September 28, 1991
Source: Commonwealth of Independent States (former USSR) (CIS)
Launch site: PLESETSK MISSILE AND SPACE COMPLEX (PKMTR)

Note: This is SATELLITE DEBRIS
aabbcc
Your satellite tracking list
Your tracking list is empty




NASA's NSSDC Master Catalog

Two Line Element Set (TLE):
1 26029U 91068AQ  22144.36298323  .00000076  00000-0  39315-3 0  9999
2 26029  82.5694 280.1500 0040727 105.4019 283.3648 12.56293278 57013
Source of the keplerian elements: AFSPC